Simultaneous Nadir Overpasses (SNOs) Predictions

Prediction of SNOs near equator between AQUA and NPP Satellite Orbit:

Table of predicted SNOs near equator for the next 14.0 days since TLE Epoch: 10/23/2021
Index Date (AQUA) Time (AQUA) AQUA Lat,Lon Date (NPP) Time (NPP) NPP Lat,Lon Distance(km) Time Diff (sec)
1 10/23/2021 15:35:59 4.52, -30.74 10/23/2021 15:26:27 4.48, -30.92 21.02 572
2 10/23/2021 16:24:07 -0.02, 137.88 10/23/2021 16:15:50 0.09, 137.43 51.00 497
3 10/23/2021 17:12:21 -4.62, -53.51 10/23/2021 17:05:20 -4.75, -54.23 80.57 421
4 10/26/2021 07:10:03 -29.97, -88.35 10/26/2021 07:00:03 -30.61, -88.82 83.83 600
5 10/26/2021 07:52:05 2.94, 85.47 10/26/2021 07:42:59 2.88, 85.20 31.12 546
6 10/26/2021 08:40:13 1.56,-105.92 10/26/2021 08:32:22 1.69,-106.45 61.08 471
7 10/26/2021 09:28:27 -6.19, 62.70 10/26/2021 09:21:52 -6.35, 61.89 90.36 395
8 10/28/2021 23:19:56 -5.94, 33.08 10/28/2021 23:10:01 -5.94, 32.97 11.55 595
9 10/29/2021 00:08:11 1.37,-158.32 10/28/2021 23:59:31 1.29,-158.69 41.30 520
10 10/29/2021 00:56:19 3.13, 10.29 10/29/2021 00:48:54 3.29, 9.67 71.18 445
11 10/31/2021 15:36:01 -4.39, 149.28 10/31/2021 15:26:32 -4.35, 149.09 21.60 569
12 10/31/2021 16:24:16 -0.19, -42.12 10/31/2021 16:16:02 -0.30, -42.57 51.55 494
13 10/31/2021 17:12:23 4.75, 126.51 10/31/2021 17:05:25 4.88, 125.79 81.13 418
14 11/03/2021 07:10:14 29.95, 91.61 11/03/2021 07:00:14 30.39, 91.19 63.31 600
15 11/03/2021 07:52:06 -2.78, -94.50 11/03/2021 07:43:03 -2.70, -94.78 31.86 543
16 11/03/2021 08:40:20 -1.86, 74.11 11/03/2021 08:32:33 -1.95, 73.56 61.67 467
17 11/03/2021 09:28:28 6.36,-117.28 11/03/2021 09:21:56 6.53,-118.08 90.96 392
18 11/05/2021 23:20:04 5.74,-146.92 11/05/2021 23:10:12 5.70,-147.02 12.38 592
19 11/06/2021 00:08:11 -1.18, 21.71 11/05/2021 23:59:35 -1.11, 21.34 42.13 516
20 11/06/2021 00:56:26 -3.39,-169.69 11/06/2021 00:49:05 -3.53,-170.33 71.81 441
